Location: Unspecified
(0.0000°N, 0.0000°E)
Time: 20:14:46
(UTC+00:00)

S-56A Canister/Altair - All Passes

Search period start: 14 July 2020 00:00
Search period end: 24 July 2020 00:00
Orbit: 633 x 2499 km, 38.9° (Epoch: 13 July)

Date Brightness Start Highest point End Pass type
(mag) Time Alt. Az. Time Alt. Az. Time Alt. Az.
14 Jul - 00:06:28 10° WNW 00:10:52 27° SW 00:14:41 10° SSE night (unlit)
14 Jul - 08:33:46 10° S 08:41:39 24° SE 08:51:33 10° E daylight
14 Jul - 10:35:35 10° SW 10:47:28 81° SE 11:02:39 10° NE daylight
14 Jul - 12:42:19 10° W 12:54:40 38° NW 13:08:03 10° NNE daylight
14 Jul - 14:59:54 10° NW 15:03:59 11° NNW 15:07:59 10° N daylight
14 Jul - 21:28:22 10° NNW 21:34:16 26° NNE 21:38:45 10° E visible
14 Jul - 23:33:08 10° WNW 23:38:20 37° SW 23:42:34 10° SSE night (unlit)
15 Jul - 08:01:54 10° S 08:08:26 19° SE 08:16:27 10° E daylight
15 Jul - 10:02:49 10° SW 10:13:59 72° SE 10:28:50 10° NE daylight
15 Jul - 12:08:42 10° WSW 12:20:55 43° NW 12:34:51 10° NNE daylight
15 Jul - 14:23:34 10° NW 14:30:02 14° NNW 14:36:23 10° N daylight
15 Jul - 20:55:23 10° NNW 21:01:22 23° NNE 21:05:55 10° E visible
15 Jul - 22:59:49 10° WNW 23:05:49 50° SW 23:10:22 10° SSE visible
16 Jul - 07:30:28 10° SSE 07:35:16 14° SE 07:40:51 10° ESE daylight
16 Jul - 09:30:10 10° SW 09:40:36 63° SE 09:54:52 10° ENE daylight
16 Jul - 11:35:16 10° WSW 11:47:13 48° NW 12:01:31 10° NNE daylight
16 Jul - 13:48:09 10° WNW 13:56:05 16° NNW 14:04:03 10° N daylight
16 Jul - 20:22:22 10° NNW 20:28:22 21° NNE 20:33:01 10° ENE visible
16 Jul - 22:26:31 10° NW 22:33:15 67° SW 22:38:06 10° SE visible
17 Jul - 07:00:42 10° SSE 07:02:07 10° SE 07:03:35 10° SE daylight
17 Jul - 08:57:39 10° SSW 09:07:18 54° SE 09:20:47 10° ENE daylight
17 Jul - 11:02:00 10° WSW 11:13:33 54° NW 11:28:05 10° NE daylight
17 Jul - 13:13:17 10° WNW 13:22:09 18° NNW 13:31:21 10° N daylight
17 Jul - 19:49:17 10° NNW 19:55:17 19° NNE 20:00:00 10° ENE visible
17 Jul - 21:53:11 10° NW 22:00:39 86° SW 22:05:47 10° SE visible
18 Jul - 08:25:15 10° SSW 08:34:07 45° SE 08:46:36 10° ENE daylight
18 Jul - 10:28:54 10° WSW 10:39:58 60° NW 10:54:33 10° NE daylight
18 Jul - 12:38:49 10° WNW 12:48:16 21° NNW 12:58:26 10° NNE daylight
18 Jul - 19:16:10 10° N 19:22:07 17° NNE 19:26:53 10° ENE visible
18 Jul - 21:19:50 10° NW 21:27:57 77° NE 21:33:23 10° SE visible
18 Jul - 23:29:29 10° WSW 23:31:20 12° SW 23:33:04 10° SSW night (unlit)
19 Jul - 07:52:59 10° SSW 08:01:01 37° SE 08:12:16 10° ENE daylight
19 Jul - 09:55:58 10° WSW 10:06:27 67° NW 10:20:56 10° NE daylight
19 Jul - 12:04:40 10° W 12:14:25 24° NNW 12:25:21 10° NNE daylight
19 Jul - 18:43:01 10° N 18:48:51 16° NNE 18:53:37 10° ENE visible
19 Jul - 20:46:27 10° NW 20:55:10 64° NE 21:00:57 10° ESE visible
19 Jul - 22:54:49 10° W 22:58:43 17° SW 23:02:01 10° S night (unlit)
20 Jul - 07:20:52 10° SSW 07:28:01 30° SE 07:37:49 10° ENE daylight
20 Jul - 09:23:08 10° SW 09:33:02 76° NW 09:47:13 10° NE daylight
20 Jul - 11:30:48 10° W 11:40:37 26° NNW 11:52:09 10° NNE daylight
20 Jul - 18:09:50 10° N 18:15:28 15° NNE 18:20:11 10° NE daylight
20 Jul - 20:13:03 10° NW 20:22:18 54° NE 20:28:25 10° ESE visible
20 Jul - 22:20:43 10° W 22:26:07 23° SW 22:30:21 10° S visible
21 Jul - 06:48:56 10° S 06:55:05 24° SE 07:03:12 10° E daylight
21 Jul - 08:50:27 10° SW 08:59:43 85° NW 09:13:27 10° NE daylight
21 Jul - 10:57:10 10° W 11:06:54 29° NNW 11:18:49 10° NNE daylight
21 Jul - 17:36:41 10° N 17:41:59 14° NNE 17:46:34 10° NE daylight
21 Jul - 19:39:36 10° NW 19:49:20 47° NE 19:55:49 10° ESE visible
21 Jul - 21:46:46 10° WNW 21:53:31 31° SW 21:58:27 10° SSE visible
22 Jul - 06:17:15 10° S 06:22:11 18° SE 06:28:21 10° E daylight
22 Jul - 08:17:52 10° SW 08:26:31 84° SE 08:39:36 10° NE daylight
22 Jul - 10:23:44 10° W 10:33:15 32° NNW 10:45:25 10° NNE daylight
22 Jul - 12:40:06 10° NNW 12:43:09 11° NNW 12:46:15 10° N daylight
22 Jul - 17:03:33 10° N 17:08:23 13° NNE 17:12:41 10° NE daylight
22 Jul - 19:06:08 10° NNW 19:16:15 41° NE 19:23:08 10° ESE visible
22 Jul - 21:12:54 10° WNW 21:20:52 41° SW 21:26:24 10° SSE visible
23 Jul - 05:46:09 10° SSE 05:49:19 13° SE 05:52:58 10° ESE daylight
23 Jul - 07:45:23 10° SW 07:53:26 73° SE 08:05:43 10° NE daylight
23 Jul - 09:50:30 10° W 09:59:41 36° NW 10:11:56 10° NNE daylight
23 Jul - 12:04:27 10° NW 12:09:07 12° NNW 12:14:01 10° N daylight
23 Jul - 16:30:31 10° N 16:34:41 12° NNE 16:38:29 10° NE daylight
23 Jul - 18:32:39 10° NNW 18:43:05 37° NE 18:50:20 10° E visible
23 Jul - 20:39:03 10° WNW 20:48:10 52° SW 20:54:15 10° SSE visible
